When you browse on this site, cookies collect data to enhance your experience and personalize the content and advertising you see.
Visit our Privacy Policy to learn more. By continuing to use the site, you agree to this use of cookies and data.
  • Em Portugal
  • Lista de países
  • Para 7 dias
  • Temperatura da água
  • Mapa do tempo
  • Widgets de tempo
  • user-avatar
    Iniciar Sessão

    Previsão horária em Mtvara

    Hoje, 7 Abril, Terça-feira

    Tempo Temperatura Precipitação Vento Pressão Humidade
    00:00 +25°C° 0 mm 1 m/s 760 mmHg 87%
    01:00 +25°C° 0 mm 1 m/s 759 mmHg 88%
    02:00 +25°C° 0 mm 1 m/s 759 mmHg 88%
    03:00 +25°C° 0 mm 1 m/s 758 mmHg 89%
    04:00 +25°C° 0 mm 1 m/s 758 mmHg 89%
    05:00 +25°C° 0 mm 1 m/s 759 mmHg 89%
    06:00 +25°C° 0 mm 1 m/s 759 mmHg 89%
    07:00 +27°C° 0 mm 1 m/s 759 mmHg 85%
    08:00 +28°C° 0 mm 1 m/s 760 mmHg 81%
    09:00 +30°C° 0 mm 1 m/s 760 mmHg 77%
    10:00 +31°C° 0 mm 1 m/s 760 mmHg 74%
    11:00 +31°C° 0 mm 1 m/s 759 mmHg 71%
    12:00 +32°C° 0 mm 1 m/s 759 mmHg 68%
    13:00 +32°C° 0.2 mm 2 m/s 758 mmHg 68%
    14:00 +32°C° 0.2 mm 2 m/s 758 mmHg 67%
    15:00 +32°C° 0.2 mm 2 m/s 757 mmHg 66%
    16:00 +31°C° 0 mm 2 m/s 757 mmHg 72%
    17:00 +30°C° 0 mm 2 m/s 757 mmHg 77%
    18:00 +29°C° 0 mm 2 m/s 757 mmHg 82%
    19:00 +28°C° 0 mm 2 m/s 758 mmHg 84%
    20:00 +27°C° 0 mm 2 m/s 759 mmHg 86%
    21:00 +26°C° 0 mm 2 m/s 759 mmHg 88%
    22:00 +26°C° 0 mm 2 m/s 759 mmHg 89%
    23:00 +26°C° 0 mm 2 m/s 759 mmHg 90%

    Amanhã, 8 Abril, Quarta-feira

    Tempo Temperatura Precipitação Vento Pressão Humidade
    00:00 +26°C° 0 mm 2 m/s 759 mmHg 91%
    01:00 +26°C° 0 mm 2 m/s 759 mmHg 92%
    02:00 +25°C° 0 mm 1 m/s 759 mmHg 92%
    03:00 +25°C° 0 mm 1 m/s 758 mmHg 93%
    04:00 +25°C° 0 mm 1 m/s 758 mmHg 93%
    05:00 +25°C° 0 mm 2 m/s 759 mmHg 94%
    06:00 +25°C° 0 mm 2 m/s 759 mmHg 94%
    07:00 +27°C° 0 mm 2 m/s 760 mmHg 88%
    08:00 +29°C° 0 mm 1 m/s 760 mmHg 82%
    09:00 +31°C° 0 mm 1 m/s 761 mmHg 75%
    10:00 +31°C° 0.2 mm 2 m/s 760 mmHg 75%
    11:00 +32°C° 0.2 mm 2 m/s 760 mmHg 75%
    12:00 +32°C° 0.2 mm 2 m/s 760 mmHg 75%
    13:00 +32°C° 0.5 mm 2 m/s 759 mmHg 77%
    14:00 +31°C° 0.5 mm 2 m/s 759 mmHg 79%
    15:00 +31°C° 0.5 mm 3 m/s 758 mmHg 82%
    16:00 +30°C° 0.2 mm 3 m/s 758 mmHg 85%
    17:00 +29°C° 0.2 mm 3 m/s 758 mmHg 88%
    18:00 +28°C° 0.2 mm 3 m/s 758 mmHg 91%
    19:00 +28°C° 0 mm 3 m/s 759 mmHg 92%
    20:00 +27°C° 0 mm 3 m/s 759 mmHg 93%
    21:00 +26°C° 0 mm 3 m/s 760 mmHg 94%
    22:00 +26°C° 0.1 mm 3 m/s 760 mmHg 95%
    23:00 +26°C° 0.1 mm 3 m/s 760 mmHg 95%

    Depois de amanhã, 9 Abril, Quinta-feira

    Tempo Temperatura Precipitação Vento Pressão Humidade
    00:00 +25°C° 0.1 mm 3 m/s 760 mmHg 96%
    01:00 +25°C° 0.3 mm 3 m/s 759 mmHg 96%
    02:00 +25°C° 0.3 mm 3 m/s 759 mmHg 97%
    03:00 +25°C° 0.3 mm 3 m/s 759 mmHg 97%
    04:00 +25°C° 0.2 mm 3 m/s 759 mmHg 97%
    05:00 +25°C° 0.2 mm 3 m/s 759 mmHg 97%
    06:00 +25°C° 0.2 mm 3 m/s 760 mmHg 98%
    07:00 +26°C° 0 mm 3 m/s 760 mmHg 93%
    08:00 +28°C° 0 mm 3 m/s 761 mmHg 89%
    09:00 +29°C° 0 mm 4 m/s 761 mmHg 84%
    10:00 +30°C° 0.3 mm 4 m/s 761 mmHg 83%
    11:00 +32°C° 0.3 mm 4 m/s 760 mmHg 81%
    12:00 +33°C° 0.3 mm 4 m/s 760 mmHg 79%
    13:00 +33°C° 0.5 mm 5 m/s 759 mmHg 77%
    14:00 +33°C° 0.5 mm 5 m/s 759 mmHg 75%
    15:00 +33°C° 0.5 mm 5 m/s 758 mmHg 73%
    16:00 +32°C° 0.2 mm 5 m/s 758 mmHg 77%
    17:00 +30°C° 0.2 mm 5 m/s 758 mmHg 82%
    18:00 +29°C° 0.2 mm 5 m/s 759 mmHg 87%
    19:00 +28°C° 0.3 mm 5 m/s 759 mmHg 88%
    20:00 +27°C° 0.3 mm 5 m/s 760 mmHg 90%
    21:00 +27°C° 0.3 mm 5 m/s 760 mmHg 92%
    22:00 +26°C° 0.1 mm 5 m/s 760 mmHg 93%
    23:00 +26°C° 0.1 mm 5 m/s 760 mmHg 94%

    10 Abril, Sexta-feira

    Tempo Temperatura Precipitação Vento Pressão Humidade
    00:00 +26°C° 0.1 mm 5 m/s 759 mmHg 95%
    01:00 +26°C° 0.1 mm 5 m/s 759 mmHg 95%
    02:00 +25°C° 0.1 mm 4 m/s 759 mmHg 96%
    03:00 +25°C° 0.1 mm 4 m/s 758 mmHg 96%
    04:00 +25°C° 0 mm 5 m/s 759 mmHg 96%
    05:00 +25°C° 0 mm 5 m/s 759 mmHg 96%
    06:00 +25°C° 0 mm 5 m/s 759 mmHg 96%
    07:00 +26°C° 0 mm 5 m/s 759 mmHg 91%
    08:00 +27°C° 0 mm 5 m/s 760 mmHg 86%
    09:00 +28°C° 0 mm 5 m/s 760 mmHg 81%
    10:00 +29°C° 0 mm 5 m/s 760 mmHg 78%
    11:00 +30°C° 0 mm 5 m/s 760 mmHg 74%
    12:00 +32°C° 0 mm 5 m/s 759 mmHg 70%
    13:00 +32°C° 0.4 mm 5 m/s 759 mmHg 75%
    14:00 +32°C° 0.4 mm 5 m/s 758 mmHg 79%
    15:00 +32°C° 0.4 mm 5 m/s 758 mmHg 84%
    16:00 +30°C° 0.2 mm 5 m/s 758 mmHg 85%
    17:00 +29°C° 0.2 mm 5 m/s 758 mmHg 87%
    18:00 +28°C° 0.2 mm 4 m/s 758 mmHg 89%
    19:00 +27°C° 0 mm 5 m/s 759 mmHg 91%
    20:00 +27°C° 0 mm 5 m/s 759 mmHg 93%
    21:00 +26°C° 0 mm 5 m/s 760 mmHg 95%
    22:00 +26°C° 0 mm 5 m/s 759 mmHg 95%
    23:00 +25°C° 0 mm 4 m/s 759 mmHg 96%

    11 Abril, Sábado

    Tempo Temperatura Precipitação Vento Pressão Humidade
    00:00 +25°C° 0 mm 4 m/s 759 mmHg 96%
    01:00 +25°C° 0.1 mm 4 m/s 759 mmHg 97%
    02:00 +25°C° 0.1 mm 4 m/s 758 mmHg 97%
    03:00 +25°C° 0.1 mm 4 m/s 758 mmHg 97%
    04:00 +25°C° 0 mm 4 m/s 758 mmHg 96%
    05:00 +25°C° 0 mm 4 m/s 758 mmHg 96%
    06:00 +25°C° 0 mm 5 m/s 758 mmHg 95%
    07:00 +26°C° 0 mm 5 m/s 759 mmHg 90%
    08:00 +28°C° 0 mm 5 m/s 759 mmHg 86%
    09:00 +29°C° 0 mm 5 m/s 760 mmHg 81%
    10:00 +30°C° 0 mm 5 m/s 759 mmHg 76%
    11:00 +33°C° 0 mm 4 m/s 759 mmHg 70%
    12:00 +34°C° 0 mm 4 m/s 759 mmHg 65%
    13:00 +34°C° 0.4 mm 4 m/s 758 mmHg 68%
    14:00 +33°C° 0.4 mm 5 m/s 758 mmHg 71%
    15:00 +33°C° 0.4 mm 5 m/s 757 mmHg 74%
    16:00 +32°C° 0.4 mm 5 m/s 757 mmHg 78%
    17:00 +30°C° 0.4 mm 4 m/s 758 mmHg 83%
    18:00 +29°C° 0.4 mm 4 m/s 758 mmHg 88%
    19:00 +28°C° 0.2 mm 4 m/s 758 mmHg 90%
    20:00 +27°C° 0.2 mm 4 m/s 759 mmHg 93%
    21:00 +26°C° 0.2 mm 4 m/s 759 mmHg 95%
    22:00 +26°C° 0 mm 4 m/s 759 mmHg 96%
    23:00 +26°C° 0 mm 4 m/s 759 mmHg 97%

    12 Abril, Domingo

    Tempo Temperatura Precipitação Vento Pressão Humidade
    00:00 +26°C° 0 mm 4 m/s 759 mmHg 97%
    01:00 +26°C° 0.1 mm 4 m/s 759 mmHg 97%
    02:00 +25°C° 0.1 mm 4 m/s 758 mmHg 98%
    03:00 +25°C° 0.1 mm 4 m/s 758 mmHg 98%
    04:00 +25°C° 0 mm 4 m/s 758 mmHg 98%
    05:00 +25°C° 0 mm 4 m/s 758 mmHg 98%
    06:00 +25°C° 0 mm 4 m/s 758 mmHg 98%
    07:00 +26°C° 0 mm 4 m/s 759 mmHg 93%
    08:00 +28°C° 0 mm 5 m/s 759 mmHg 89%
    09:00 +29°C° 0 mm 5 m/s 760 mmHg 85%
    10:00 +30°C° 0 mm 5 m/s 759 mmHg 78%
    11:00 +33°C° 0 mm 4 m/s 759 mmHg 70%
    12:00 +34°C° 0 mm 4 m/s 759 mmHg 63%
    13:00 +34°C° 0.1 mm 5 m/s 758 mmHg 65%
    14:00 +34°C° 0.1 mm 5 m/s 757 mmHg 67%
    15:00 +34°C° 0.1 mm 5 m/s 757 mmHg 69%
    16:00 +32°C° 0.3 mm 5 m/s 757 mmHg 74%
    17:00 +30°C° 0.3 mm 5 m/s 757 mmHg 79%
    18:00 +29°C° 0.3 mm 5 m/s 757 mmHg 84%
    19:00 +28°C° 0.5 mm 5 m/s 758 mmHg 88%
    20:00 +27°C° 0.5 mm 4 m/s 758 mmHg 91%
    21:00 +26°C° 0.5 mm 4 m/s 759 mmHg 95%
    22:00 +26°C° 0.3 mm 4 m/s 759 mmHg 96%
    23:00 +26°C° 0.3 mm 4 m/s 758 mmHg 97%
    Mostrar mais